Location: Spor
(46.2167°N, 11.0500°E)
Time: 01:17:49
(UTC+00:00)

Daily predictions for brighter satellites

Satellite Brightness Start Highest point End
(mag) Time Altitude Azimuth Time Altitude Azimuth Time Altitude Azimuth
STARLINK-1268 3.6 00:04:28 44° E 00:04:28 44° E 00:06:45 10° ENE
STARLINK-1301 3.3 00:03:56 65° SSE 00:04:01 65° SE 00:07:51 10° ENE
STARLINK-1303 3.3 00:05:53 65° SE 00:05:53 65° SE 00:09:37 10° ENE
Cosmos 1570 Rocket 4.0 00:04:53 41° SSW 00:06:48 88° WNW 00:12:07 10° NNE
STARLINK-66 3.0 00:07:08 76° NNW 00:07:08 76° NNW 00:10:19 10° ENE
Cosmos 1400 Rocket 3.7 00:03:28 10° N 00:07:28 44° ENE 00:09:10 28° SE
Cosmos 1709 Rocket 3.9 00:05:05 36° S 00:07:47 86° W 00:14:01 10° N
Cosmos 1763 Rocket 3.8 00:05:57 33° SW 00:08:00 54° WNW 00:13:00 10° NNE
STARLINK-1316 3.3 00:09:23 55° E 00:09:23 55° E 00:11:57 10° ENE
Cosmos 2227 Rocket 3.1 00:04:09 10° NW 00:09:03 30° WSW 00:10:10 28° SW
STARLINK-1312 3.2 00:09:13 68° SSE 00:09:21 69° SSE 00:13:07 10° ENE
STARLINK-1257 3.2 00:10:14 57° E 00:10:14 57° E 00:12:51 10° ENE
STARLINK-1256 3.2 00:11:11 58° ENE 00:11:11 58° ENE 00:13:49 10° ENE
STARLINK-58 3.7 00:11:42 42° E 00:11:42 42° E 00:14:06 10° ENE
STARLINK-1213 3.2 00:12:02 60° ENE 00:12:02 60° ENE 00:14:42 10° ENE
STARLINK-1263 3.1 00:12:53 62° ENE 00:12:53 62° ENE 00:15:35 10° ENE
STARLINK-1259 3.1 00:13:47 64° ENE 00:13:47 64° ENE 00:16:32 10° ENE
Cosmos 2084 Rocket 3.4 00:09:07 10° NW 00:13:34 72° SW 00:14:58 43° SSE
STARLINK-1265 3.0 00:14:10 67° ENE 00:14:10 67° ENE 00:16:57 10° ENE
STARLINK-1285 3.0 00:14:38 67° ENE 00:14:38 67° ENE 00:17:25 10° ENE
SL-16 R/B 3.3 00:10:23 12° SE 00:15:47 49° ENE 00:21:42 10° N
STARLINK-1296 2.9 00:16:22 71° ENE 00:16:22 71° ENE 00:19:13 10° ENE
Cosmos 2298 Rocket 4.3 00:11:08 10° NNW 00:16:27 68° ENE 00:19:50 23° SE
Cosmos 1758 Rocket 3.6 00:15:28 47° SSW 00:16:37 71° W 00:21:04 10° N
STARLINK-1260 2.9 00:17:14 74° ENE 00:17:14 74° ENE 00:20:07 10° ENE
STARLINK-1318 2.9 00:18:06 76° ENE 00:18:06 76° ENE 00:21:01 10° ENE
STARLINK-75 3.1 00:18:02 64° WNW 00:18:20 71° NNW 00:21:34 10° ENE
STARLINK-1275 2.9 00:18:59 78° ENE 00:18:59 78° ENE 00:21:56 10° ENE
STARLINK-48 3.9 00:19:05 44° SE 00:19:05 44° SE 00:22:46 10° ENE
STARLINK-1309 2.8 00:19:50 79° NE 00:19:50 79° NE 00:22:49 10° ENE
STARLINK-1282 2.8 00:20:42 81° NE 00:20:42 81° NE 00:23:43 10° ENE
IRAS Rocket 4.2 00:18:05 30° SSE 00:20:58 90° WSW 00:26:32 10° NNW
STARLINK-1283 3.5 00:20:03 47° SW 00:21:11 87° SSE 00:25:19 10° ENE
STARLINK-1313 2.8 00:21:38 77° NW 00:21:41 77° NNW 00:24:49 10° ENE
STARLINK-80 3.2 00:21:07 57° SW 00:21:50 87° SSE 00:25:40 10° ENE
STARLINK-1279 2.8 00:22:33 75° NW 00:22:38 76° NNW 00:25:45 10° ENE
CZ-4 R/B 4.5 00:18:34 10° N 00:23:03 44° WNW 00:24:50 30° WSW
STARLINK-1298 2.8 00:23:16 83° NNW 00:23:16 83° NNW 00:26:22 10° ENE
STARLINK-1293 2.8 00:24:10 82° NW 00:24:11 82° NNW 00:27:19 10° ENE
SL-16 R/B 3.5 00:22:44 20° SSE 00:25:26 30° ESE 00:30:18 10° NE
Cosmos 2208 Rocket 4.1 00:23:37 36° SW 00:25:49 75° WNW 00:31:13 10° NNE
STARLINK-1255 2.8 00:25:54 78° WNW 00:25:59 80° NNW 00:29:07 10° ENE
STARLINK-22 3.0 00:26:16 66° W 00:26:35 75° NNW 00:29:48 10° ENE
STARLINK-1297 3.1 00:26:32 60° WSW 00:27:08 89° SSE 00:30:46 10° ENE
STARLINK-1311 2.9 00:28:27 63° NW 00:28:34 64° NNW 00:31:31 10° NE
Cosmos 2285 Rocket 4.2 00:22:58 10° NNW 00:29:07 54° WSW 00:31:55 31° SSW
MOZ.5/SAFIR/RUBIN 5/SL-8 4.0 00:29:16 27° SSE 00:31:46 68° ENE 00:36:24 10° N
CZ-2D R/B 2.9 00:27:18 10° NNE 00:32:17 43° E 00:35:02 24° SSE
USA 81 4.4 00:30:17 33° SW 00:32:21 53° W 00:37:32 10° N
USA 215 3.3 00:28:06 16° SSE 00:33:19 54° SW 00:39:44 10° WNW
Cosmos-2242 3.2 00:29:14 10° NNW 00:33:22 53° W 00:34:24 42° SW
Meteor 2-10 Rocket 4.2 00:29:07 10° NNW 00:33:48 37° W 00:35:16 30° SW
Cosmos 1953 Rocket 3.5 00:33:32 42° SSW 00:35:00 82° W 00:39:25 10° N
Cosmos 2221 3.8 00:32:08 10° N 00:36:11 36° ENE 00:39:27 14° SE
STARLINK-42 3.7 00:36:26 34° WNW 00:37:23 48° NNW 00:40:26 10° NE
BREEZE-M R/B 3.6 00:31:56 10° W 00:37:36 53° N 00:40:40 10° ENE
STARLINK-1310 4.5 00:37:58 32° SSE 00:38:23 33° SE 00:42:07 10° ENE
STARLINK-1029 2.7 00:39:04 74° SSE 00:39:08 74° SE 00:42:18 10° ENE
STARLINK-34 2.7 00:40:02 72° W 00:40:16 82° NNW 00:43:22 10° ENE
CZ-4C R/B 3.8 00:38:34 26° SSE 00:40:57 71° ENE 00:45:23 10° N
STARLINK-60 3.2 00:37:51 10° NW 00:41:02 67° NNE 00:44:12 10° ESE
GP-B 3.1 00:36:38 10° N 00:41:06 79° E 00:42:58 34° S
STARLINK-41 3.7 00:40:11 33° WNW 00:41:07 47° NNW 00:44:05 10° NE
Cosmos 1315 Rocket 4.0 00:39:19 10° N 00:43:01 39° ENE 00:45:45 16° SE
Cosmos 1842 Rocket 4.2 00:38:49 10° N 00:43:12 52° ENE 00:46:04 20° SSE
STARLINK-1272 3.4 00:42:02 38° W 00:43:14 69° NNW 00:46:46 10° ENE
STARLINK-1319 4.4 00:42:43 34° SSE 00:43:19 36° SE 00:47:07 10° ENE
Cosmos 540 Rocket 3.9 00:41:07 29° SW 00:43:30 53° WNW 00:48:32 10° NNE
STARLINK-62 2.8 00:43:45 63° W 00:44:08 77° NNW 00:47:11 10° ENE
Cosmos 2360 Rocket 4.1 00:43:58 10° SE 00:47:51 20° E 00:51:48 10° NE
STARLINK-1277 4.3 00:47:31 35° SSE 00:48:16 39° SE 00:52:08 10° ENE
STARLINK-1307 3.5 00:46:48 32° WSW 00:48:23 67° NNW 00:52:06 10° ENE
Helios 1B rocket 4.1 00:45:24 10° NNW 00:48:45 24° WNW 00:50:24 19° W
STARLINK-1290 3.6 00:50:11 29° W 00:51:54 64° NNW 00:55:37 10° NE
STARLINK-1276 4.2 00:52:19 36° S 00:53:15 42° SE 00:57:10 10° ENE
Cosmos 2058 4.4 00:50:48 16° SE 00:53:27 30° E 00:57:09 10° NNE
Shenzhou-11 Module 4.2 00:56:40 12° ESE 00:56:40 12° ESE 00:56:53 10° ESE
Cosmos 1980 Rocket 2.6 00:51:50 25° SW 00:54:59 54° WNW 01:00:34 10° NNE
Cosmos 2074 Rocket 4.0 00:51:22 26° S 00:55:08 88° ESE 01:01:28 10° N
STARLINK-1305 4.1 00:57:04 36° S 00:58:11 46° SE 01:02:09 10° ENE
STARLINK-1306 4.0 00:57:24 36° S 00:58:37 49° SE 01:02:41 10° ENE
STARLINK-1317 3.9 00:56:33 22° W 00:58:54 58° NNW 01:02:47 10° NE
Cosmos 1455 4.1 00:57:25 10° NW 00:59:48 16° W 01:00:05 16° W
CZ-4B R/B 4.0 00:56:00 10° NNE 01:01:11 56° E 01:04:35 21° S
STARLINK-55 4.5 01:00:33 14° W 01:02:54 34° NNW 01:05:52 10° NE
STARLINK-1274 3.9 01:00:55 22° W 01:02:57 52° NNW 01:06:25 10° NE
STARLINK-1262 3.9 01:01:53 35° SSW 01:03:10 50° SE 01:07:12 10° ENE
STARLINK-1291 4.0 01:04:15 19° W 01:06:38 52° NNW 01:10:18 10° NE
Meteor 1-11 4.4 01:03:54 27° SW 01:06:54 59° WNW 01:12:26 10° N
STARLINK-1300 3.8 01:06:40 34° SSW 01:08:07 54° SE 01:12:11 10° ENE
STARLINK-1264 4.1 01:07:26 18° W 01:09:58 50° NNW 01:13:38 10° NE
ADEOS II 3.2 01:05:27 10° NNE 01:10:20 37° E 01:14:40 13° SSE
Cosmos 2263 Rocket 2.1 01:05:55 10° NNW 01:11:29 67° WSW 01:15:58 16° SSE
STARLINK-1295 3.7 01:11:26 33° SSW 01:13:04 58° SE 01:17:10 10° ENE
NOSS 2-1 (C) 2.9 01:12:04 38° SSW 01:13:15 76° SE 01:16:49 10° NE
STARLINK-1267 4.2 01:10:40 17° W 01:13:20 48° NNW 01:16:59 10° NE
IRS-1D 4.2 01:08:32 10° NNE 01:13:40 50° E 01:17:31 17° S
STARLINK-29 3.3 01:10:38 10° NW 01:13:49 64° NNE 01:16:59 10° ESE
UNK 3.7 01:11:40 26° S 01:14:13 63° WSW 01:18:46 10° NNW
AQUA 3.9 01:10:37 10° NNE 01:15:24 73° ESE 01:18:24 23° S
SL-4 R/B 2.2 01:10:38 10° WNW 01:15:28 71° SSW 01:20:06 10° SE
STARLINK-64 3.2 01:14:12 31° WSW 01:15:47 85° NNW 01:19:24 10° ENE
USA 229 DEB 3.8 01:10:02 10° NW 01:17:19 73° SW 01:24:54 10° SSE
USA 229 3.8 01:10:09 10° NW 01:17:25 74° SW 01:25:01 10° SSE
STARLINK-1287 3.7 01:16:13 31° SW 01:18:03 63° SE 01:22:09 10° ENE
NOSS 2-1 (D) 2.8 01:16:50 35° SW 01:18:08 86° SE 01:21:45 10° NE
NOSS 3-1 (C) 4.1 01:10:41 10° NW 01:18:12 69° WSW 01:26:48 10° SSE
NPP 3.6 01:13:56 10° NNE 01:19:21 87° WNW 01:22:54 22° SSW
ARIANE 5 R/B 4.1 01:15:46 10° NE 01:20:00 27° E 01:24:13 10° SSE
STARLINK-1207 4.3 01:17:09 14° W 01:20:09 45° NNW 01:23:46 10° NE
Cosmos 2184 Rocket 4.1 01:16:26 23° SSW 01:20:20 64° WNW 01:26:29 10° N
CZ-4C R/B 4.1 01:18:22 10° W 01:22:55 26° NNW 01:28:11 10° NNE
STARLINK-1266 4.4 01:20:25 13° W 01:23:33 43° NNW 01:27:10 10° NE
BREEZE-M DEB (TANK) 1.9 01:23:14 34° W 01:23:55 64° NNW 01:26:48 10° ENE
Cosmos 1892 3.1 01:21:52 22° S 01:24:11 59° E 01:27:55 10° NNE
NOSS 3-1 (A) 4.1 01:18:50 10° NW 01:26:24 85° SW 01:35:06 10° SSE
STARLINK-1299 3.6 01:24:05 25° SW 01:26:31 83° SE 01:30:47 10° ENE
STARLINK-1284 4.4 01:23:40 12° W 01:26:58 42° NNW 01:30:34 10° NE
STARLINK-1302 3.6 01:25:46 26° SW 01:27:58 74° SSE 01:32:07 10° ENE
Cosmos 1610 Rocket 4.5 01:24:11 20° SSW 01:28:35 80° W 01:34:50 10° N
BREEZE-M DEB (TANK) 2.3 01:26:22 10° WNW 01:28:39 42° N 01:31:14 10° E
Cosmos 1869 3.2 01:26:54 10° NNW 01:30:44 64° W 01:33:00 23° S
STARLINK-1273 3.5 01:30:32 24° SW 01:32:56 79° SSE 01:37:06 10° ENE
Cosmos 2322 Rocket 2.2 01:29:42 21° SSW 01:33:35 83° ESE 01:39:13 10° NNE
In-Cosmos 22 Rocket 4.2 01:31:02 18° S 01:35:19 85° E 01:40:49 10° NNE
STARLINK-1327 4.5 01:32:32 10° NW 01:35:28 37° NNE 01:38:25 10° E
STARLINK-1340 4.5 01:32:49 10° NW 01:35:47 37° NNE 01:38:43 10° E
STARLINK-1356 4.5 01:33:12 10° NW 01:36:10 37° NNE 01:39:06 10° E
STARLINK-1345 4.5 01:33:31 10° NW 01:36:28 38° NNE 01:39:25 10° E
STARLINK-1355 4.5 01:33:52 10° NW 01:36:50 38° NNE 01:39:47 10° E
STARLINK-1321 4.5 01:34:13 10° NW 01:37:11 38° NNE 01:40:08 10° E
STARLINK-1358 4.4 01:34:37 10° NW 01:37:34 38° NNE 01:40:31 10° E
STARLINK-1332 4.4 01:34:53 10° NW 01:37:51 38° NNE 01:40:49 10° E
STARLINK-1288 3.5 01:35:19 22° SW 01:37:55 85° SSE 01:42:05 10° ENE
STARLINK-61 3.5 01:35:51 25° SW 01:38:00 67° SE 01:41:55 10° ENE
STARLINK-1348 4.4 01:35:14 10° NW 01:38:11 38° NNE 01:41:09 10° E
STARLINK-1330 4.4 01:35:33 10° NW 01:38:31 38° NNE 01:41:29 10° E
STARLINK-1363 4.4 01:35:53 10° NW 01:38:51 39° NNE 01:41:49 10° E
STARLINK-1337 4.4 01:36:16 10° NW 01:39:14 39° NNE 01:42:12 10° E
STARLINK-1342 4.4 01:36:35 10° NW 01:39:33 39° NNE 01:42:31 10° E
STARLINK-1364 4.4 01:36:55 10° NW 01:39:53 39° NNE 01:42:51 10° E
STARLINK-1376 4.4 01:37:15 10° NW 01:40:14 39° NNE 01:43:11 10° E
STARLINK-1360 4.4 01:37:36 10° NW 01:40:35 40° NNE 01:43:33 10° E
STARLINK-1361 4.4 01:37:56 10° NW 01:40:55 40° NNE 01:43:53 10° E
Resurs 1-4 Rocket 2.6 01:36:06 10° N 01:41:12 49° WNW 01:44:54 18° SW
STARLINK-1367 4.3 01:38:11 10° NW 01:41:13 40° NNE 01:44:14 10° E
STARLINK-1366 4.3 01:38:35 10° NW 01:41:34 40° NNE 01:44:33 10° E
STARLINK-54 4.4 01:40:39 21° S 01:42:19 32° SE 01:45:34 10° ENE
STARLINK-1308 3.6 01:40:08 20° WSW 01:42:56 89° NNW 01:47:06 10° ENE
Cosmos 1076 Rocket 3.5 01:39:51 19° S 01:42:57 85° W 01:47:21 10° N
STARLINK-77 4.5 01:42:03 20° S 01:43:47 30° SE 01:47:00 10° ENE
Cosmos 2151 4.0 01:40:43 10° SSE 01:44:45 43° E 01:48:50 10° NNE
Cosmos 1125 Rocket 4.1 01:40:33 10° NW 01:45:20 37° WSW 01:48:54 16° SSW
H-2A R/B 3.9 01:42:51 10° SE 01:46:52 34° ENE 01:50:57 10° N
STARLINK-58 4.5 01:44:12 10° W 01:47:07 32° NNW 01:50:03 10° NE
STARLINK-79 4.3 01:46:45 20° S 01:48:39 33° SE 01:51:56 10° ENE
STARLINK-52 2.8 01:45:57 10° WNW 01:49:10 76° SSW 01:52:22 10° SE
Cosmos 962 Rocket 4.5 01:44:45 13° S 01:50:16 90° ESE 01:56:32 10° N
STARLINK-78 4.3 01:48:20 20° SSW 01:50:17 34° SE 01:53:36 10° ENE
STARLINK-57 4.1 01:49:58 20° SSW 01:51:58 37° SE 01:55:19 10° ENE
Cosmos 1408 2.6 01:49:31 16° S 01:52:24 78° E 01:56:05 10° NNE
STARLINK-1304 3.7 01:49:41 16° WSW 01:52:53 79° NNW 01:57:03 10° ENE
STARLINK-49 4.2 01:51:26 19° SSW 01:53:29 36° SE 01:56:50 10° ENE
Cosmos 2154 Rocket 4.3 01:49:51 17° SSW 01:54:42 55° WNW 02:00:49 10° N
STARLINK-27 4.1 01:53:02 19° SSW 01:55:09 37° SE 01:58:32 10° ENE
GEOS 3 Rocket 3.7 01:51:10 10° SSE 01:56:15 56° SW 02:01:27 10° NW
STARLINK-74 4.1 01:54:35 19° SSW 01:56:45 38° SE 02:00:09 10° ENE
STARLINK-48 4.4 01:53:56 10° W 01:57:41 46° NNW 02:01:28 10° NE
STARLINK-39 4.0 01:56:10 18° SSW 01:58:24 39° SE 02:01:49 10° ENE
Cosmos 1825 2.6 01:55:27 11° S 01:58:59 61° E 02:02:43 10° NNE
STARLINK-1278 3.9 01:55:21 13° WSW 01:59:04 67° NNW 02:03:20 10° ENE
Cosmos 2237 4.4 01:54:31 14° SSW 01:59:25 75° ESE 02:05:10 10° NNE
SL-16 R/B 3.4 01:55:29 16° SSW 01:59:35 31° W 02:05:01 10° NNW
STARLINK-31 4.0 01:57:45 18° SSW 02:00:02 41° SE 02:03:29 10° ENE
STARLINK-1280 4.0 01:57:08 13° WSW 02:00:56 65° NNW 02:05:11 10° ENE
SL-08 R/B 3.2 01:56:40 10° SSE 02:01:17 88° WSW 02:05:55 10° NNW
STARLINK-69 3.8 01:59:20 18° SSW 02:01:40 46° SE 02:05:08 10° ENE
STARLINK-21 3.9 02:00:55 18° SSW 02:03:19 44° SE 02:06:47 10° ENE
IRS-P3 4.1 01:59:24 10° NNE 02:04:46 85° WNW 02:09:52 11° SSW
STARLINK-45 3.7 02:02:35 18° SSW 02:05:04 50° SE 02:08:36 10° ENE
Cosmos 1844 Rocket 2.9 02:00:26 10° NNW 02:06:04 77° ENE 02:11:38 10° SSE
STARLINK-1374 4.5 02:02:09 10° NW 02:06:05 52° NNE 02:10:00 10° E
NOSS 2-1 (E) 4.1 02:04:58 13° WSW 02:07:42 36° NW 02:11:14 10° NNE
STARLINK-76 3.7 02:05:36 17° SSW 02:08:11 49° SE 02:11:42 10° ENE
STARLINK-70 3.7 02:05:59 17° SW 02:08:38 52° SE 02:12:13 10° ENE
SL-16 R/B 2.8 02:04:36 14° SW 02:09:19 47° WNW 02:14:48 10° NNE
STARLINK-1286 4.0 02:05:37 11° WSW 02:09:34 63° NNW 02:13:44 10° ENE
STARLINK-23 3.7 02:07:11 16° SW 02:09:48 50° SE 02:13:21 10° ENE
STARLINK-1339 4.4 02:06:19 10° NW 02:10:14 54° NNE 02:14:07 10° ESE
STARLINK-1049 4.4 02:07:06 15° SSW 02:10:14 41° SE 02:14:08 10° ENE
STARLINK-32 3.6 02:08:37 16° SW 02:11:16 51° SE 02:14:45 10° ENE
CZ-2D R/B 3.3 02:07:44 10° N 02:12:09 28° WNW 02:16:21 11° WSW
STARLINK-1281 4.0 02:08:48 11° WSW 02:12:48 62° NNW 02:16:56 10° ENE
STARLINK-40 3.6 02:10:18 16° SW 02:13:03 53° SE 02:16:36 10° ENE
Cosmos 2221 3.9 02:10:08 10° NW 02:13:32 22° W 02:16:16 13° SW
COSMOS 2428 4.2 02:08:58 10° SSE 02:13:54 31° ESE 02:18:50 10° NE
STARLINK-44 3.6 02:11:49 15° SW 02:14:38 55° SE 02:18:11 10° ENE
STARLINK-1377 4.3 02:10:51 10° NW 02:14:48 57° NNE 02:18:46 10° ESE
CZ-4C R/B 4.1 02:11:19 10° SSE 02:14:49 48° ENE 02:18:20 10° N
STARLINK-1051 4.3 02:11:51 14° SSW 02:15:10 44° SE 02:19:07 10° ENE
Cosmos 773 Rocket 4.1 02:11:02 11° SSW 02:16:06 86° ESE 02:21:27 10° NNE
STARLINK-37 3.4 02:13:33 15° SW 02:16:27 61° SE 02:20:02 10° ENE
STARLINK-60 4.4 02:14:31 10° W 02:16:50 18° SW 02:19:07 10° S
STARLINK-1310 4.1 02:13:43 10° WSW 02:17:49 58° NNW 02:21:55 10° NE
STARLINK-36 3.5 02:14:56 14° SW 02:17:52 58° SE 02:21:27 10° ENE
FALCON 9 DEB 3.0 02:15:03 10° WNW 02:18:28 70° SW 02:21:55 10° SE
STARLINK-1353 4.2 02:15:11 10° NW 02:19:10 60° NNE 02:23:08 10° ESE
STARLINK-63 3.4 02:18:10 14° SW 02:21:14 65° SE 02:24:49 10° ENE
STARLINK-35 3.4 02:19:32 13° SW 02:22:35 64° SE 02:26:08 10° ENE
STARLINK-1319 4.2 02:18:43 10° WSW 02:22:47 55° NNW 02:26:53 10° NE
STARLINK-1375 4.1 02:19:33 10° WNW 02:23:33 64° NNE 02:27:32 10° ESE
STARLINK-51 3.4 02:21:14 13° SW 02:24:23 67° SE 02:27:59 10° ENE
STARLINK-1028 4.0 02:21:25 12° SW 02:25:05 52° SE 02:29:08 10° ENE
Cosmos 2366 rocket 4.1 02:18:51 10° S 02:25:06 89° E 02:31:28 10° N
STARLINK-30 3.3 02:22:49 12° SW 02:26:03 69° SE 02:29:40 10° ENE
STARLINK-72 3.3 02:24:13 12° SW 02:27:26 70° SSE 02:31:00 10° ENE
Cosmos 2278 Rocket 4.5 02:22:48 10° N 02:27:47 30° NE 02:32:44 10° ESE
STARLINK-1277 4.3 02:23:44 10° W 02:27:47 52° NNW 02:31:52 10° NE
STARLINK-1350 4.0 02:23:54 10° WNW 02:27:54 67° NNE 02:31:55 10° ESE
Shenzhou-11 Module 2.3 02:26:47 11° WSW 02:28:53 31° S 02:31:07 10° ESE
STARLINK-1021 3.9 02:26:14 11° SW 02:30:04 57° SE 02:34:09 10° ENE
Cosmos 2058 4.3 02:27:00 11° SW 02:30:22 25° WNW 02:33:53 10° NNW
STARLINK-59 3.2 02:27:25 11° SW 02:30:47 78° SSE 02:34:22 10° ENE
Cosmos 1933 3.8 02:26:57 10° N 02:31:00 66° E 02:34:58 10° SSE
Cosmos 2360 Rocket 2.3 02:25:44 10° SW 02:31:16 68° WNW 02:36:55 10° NNE
STARLINK-1352 3.9 02:28:04 10° WNW 02:32:05 71° NNE 02:36:05 10° ESE
STARLINK-1010 3.9 02:28:17 11° SW 02:32:19 62° SE 02:36:31 10° ENE
STARLINK-56 3.3 02:29:04 11° SW 02:32:33 77° SSE 02:36:11 10° ENE
STARLINK-1276 4.3 02:28:46 10° W 02:32:48 50° NNW 02:36:52 10° NE
STARLINK-73 3.3 02:30:38 10° SW 02:34:11 79° SSE 02:37:49 10° ENE
Cosmos 1328 Rocket 3.7 02:30:07 10° N 02:34:32 81° E 02:38:54 10° S
STARLINK-1019 3.9 02:30:59 10° SW 02:35:00 61° SE 02:39:07 10° ENE
STARLINK-38 3.3 02:32:12 10° SW 02:35:48 82° SSE 02:39:27 10° ENE
STARLINK-1368 3.8 02:32:45 10° WNW 02:36:48 76° NNE 02:40:49 10° ESE
STARLINK-65 3.3 02:33:49 10° SW 02:37:26 84° SSE 02:41:05 10° ENE
STARLINK-1305 4.4 02:33:46 10° W 02:37:47 48° NNW 02:41:49 10° NE
STARLINK-68 3.3 02:34:29 10° WSW 02:38:08 89° SSE 02:41:49 10° ENE
STARLINK-53 3.3 02:35:32 10° WSW 02:39:09 89° SSE 02:42:48 10° ENE
STARLINK-1012 3.8 02:35:53 10° SW 02:40:00 67° SE 02:44:07 10° ENE
Cosmos 1980 Rocket 4.4 02:37:51 10° WNW 02:40:22 13° NW 02:42:54 10° N
STARLINK-1369 3.7 02:37:12 10° WNW 02:41:14 80° NNE 02:45:16 10° ESE
STARLINK-50 3.4 02:37:37 10° SW 02:41:26 85° SSE 02:45:15 10° ENE
SL-24 DEB 4.5 02:37:39 10° N 02:42:08 53° W 02:46:35 10° SSW
Cosmos 2333 Rocket 2.6 02:39:10 10° SSW 02:44:44 64° ESE 02:50:22 10° NNE
STARLINK-1372 3.6 02:41:22 10° WNW 02:45:22 85° NNE 02:49:20 10° ESE
Meteor 1-28 Rocket 3.8 02:42:22 10° SSW 02:45:53 38° W 02:49:25 10° NNW
STARLINK-71 3.6 02:42:10 10° WSW 02:46:11 88° NNW 02:50:14 10° ENE
Landsat 5 3.6 02:42:36 10° S 02:47:06 79° WSW 02:51:34 10° NNW
Cosmos 2219 Rocket 2.6 02:43:20 10° SSW 02:48:50 64° ESE 02:54:23 10° NNE
STARLINK-29 4.3 02:47:19 10° W 02:49:40 19° SW 02:52:01 10° S
Cosmos 1727 Rocket 4.0 02:43:32 10° N 02:49:43 78° W 02:55:53 10° S
STARLINK-1026 3.7 02:45:47 10° SW 02:49:55 77° SE 02:54:04 10° ENE
ADEOS II 3.1 02:45:18 10° N 02:49:57 33° WNW 02:54:35 10° SW
STARLINK-1378 3.6 02:46:05 10° WNW 02:50:08 90° NNE 02:54:10 10° ESE
Cosmos 2322 3.8 02:44:31 10° SSW 02:50:14 85° WNW 02:56:01 10° NNE
